User: anonymous   Login
Location: Newark
(33.6439°N, 114.9881°W)
Time: 12:50:54
(UTC+00:00)
Language:

Altair - Orbit

View from above orbital plane
View from above orbital plane
View from above satellite
View from above satellite

Ground track
Ground track

The orbit data is extracted from the following two-line orbital elements,

1    50U 60009B   19228.80420472 -.00000040 +00000-0 +43084-3 0  9996
2    50 047.2333 349.9001 0113930 134.9809 226.0282 12.20109614632904
Epoch (UTC): 16 August 2019 19:18:03
Eccentricity: 0.0113930
inclination: 47.2333°
perigee height: 1501 km
apogee height: 1683 km
right ascension of ascending node: 349.9001°
argument of perigee: 134.9809°
revolutions per day: 12.20109614
mean anomaly at epoch: 226.0282°
orbit number at epoch: 63290

The dashed part of the orbit path shows where the satellite is in the earth's shadow,  

DLR